Preview of NWS' New Version of Forecast
This preview is not operational and should not be used for support decisions.

Regional Weather Roundup (RWR)

Issued by National Weather Service (NWS)

                            
000
ASPQ40 PGUM 170710
RWRPQ 
WEATHER ROUNDUP FOR THE MARIANAS AND MICRONESIA
NATIONAL WEATHER SERVICE TIYAN GU
500 PM CHST SUN FEB 17 2019

GUZ001>004-170800-
MARIANA ISLANDS-
  
CITY           SKY/WX    TMP DP  RH WIND       PRES   REMARKS
GUAM AIRPORT   SUNNY     84  72  65 NE20      29.95R                  
ANDERSEN AFB   MOSUNNY   81  68  65 NE20G28   29.95S                  
ROTA AIRPORT   MOSUNNY   81  70  69 E15       29.94R                  
TINIAN AP      PTSUNNY  N/A N/A N/A E15       29.94R                  
SAIPAN AP      PTSUNNY   82  66  57 NE17      29.95R                  

$$

PMZ161-170800-
REPUBLIC OF PALAU-
  
CITY           SKY/WX    TMP DP  RH WIND       PRES   REMARKS
KOROR AP       PTSUNNY   82  72  69 NE16G25   29.86S                  
KOROR WSO      NOT AVBL                                               

$$

PMZ171>174-170800-
FEDERATED STATES OF MICRONESIA-
  
CITY           SKY/WX    TMP DP  RH WIND       PRES   REMARKS
YAP AIRPORT    LGT RAIN  79  75  89 VRB7      29.87S                  
CHUUK AP       PTSUNNY   82  77  83 N14       29.79R HX  91           
POHNPEI AP     NOT AVBL                                               
POHNPEI WSO    CLOUDY    82  75  78 NE7       29.80S                  
KOSRAE AP      NOT AVBL                                               

$$

PMZ181-170800-
REPUBLIC OF THE MARSHALL ISLANDS-
  
CITY           SKY/WX    TMP DP  RH WIND       PRES   REMARKS
KWAJALEIN AP   PTCLDY   N/A N/A N/A E21       29.75R                  
MAJURO AP      MOCLDY    86  77  74 E21       29.73R HX  97           
MAJURO WSO     MOCLDY    82  77  83 E9        29.72R HX  91           

$$